,,Stat5,,Stat1,,Stat2,,Stat3,,Stat4,,Wind1,,Wind1,
time,status,PA1M_AVG,status,PR1M_SUM,status,RH1M_AVG,status,SR1M_AVG,status,TA1M_AVG,status,W1dAve1m,status,W1sAve1m,
2001-09-16, 00:00:00,VALID,918.46,VALID,0,VALID,96.3762,VALID,-0.0339617,VALID,20.7315,VALID,22,VALID,0.640831,
2001-09-16, 00:01:00,VALID,918.46,VALID,0,VALID,96.3431,VALID,0,VALID,20.7272,VALID,23,VALID,0.513569,
2001-09-16, 00:02:00,VALID,918.468,VALID,0,VALID,96.3101,VALID,0.0339617,VALID,20.7267,VALID,16,VALID,0.556891,
2001-09-16, 00:03:00,VALID,918.458,VALID,0,VALID,96.1473,VALID,0.0169808,VALID,20.7307,VALID,14,VALID,0.694727,
2001-09-16, 00:04:00,VALID,918.426,VALID,0,VALID,96.1053,VALID,0.0339617,VALID,20.6976,VALID,41,VALID,0.994591,
2001-09-16, 00:05:00,VALID,918.43,VALID,0,VALID,96.2287,VALID,0.0339617,VALID,20.6885,VALID,27,VALID,1.23818,
2001-09-16, 00:06:00,VALID,918.423,VALID,0,VALID,96.4601,VALID,0.0169808,VALID,20.6919,VALID,11,VALID,0.918919,
2001-09-16, 00:07:00,VALID,918.411,VALID,0,VALID,96.2668,VALID,0,VALID,20.6494,VALID,354,VALID,0.873828,
2001-09-16, 00:08:00,VALID,918.398,VALID,0,VALID,96.263,VALID,0,VALID,20.6179,VALID,6,VALID,0.451057,
2001-09-16, 00:09:00,VALID,918.379,VALID,0,VALID,96.3507,VALID,0,VALID,20.5915,VALID,341,VALID,0.598437,
2001-09-16, 00:10:00,VALID,918.37,VALID,0,VALID,96.3571,VALID,0.0169808,VALID,20.5498,VALID,340,VALID,0.668069,
2001-09-16, 00:11:00,VALID,918.342,VALID,0,VALID,96.5453,VALID,0,VALID,20.5336,VALID,347,VALID,0.0931332,
2001-09-16, 00:12:00,VALID,918.352,VALID,0,VALID,96.7233,VALID,0.0169808,VALID,20.5229,VALID,1,VALID,0.279811,
2001-09-16, 00:13:00,VALID,918.358,VALID,0,VALID,96.7907,VALID,0.0169808,VALID,20.5501,VALID,16,VALID,0.526563,
2001-09-16, 00:14:00,VALID,918.356,VALID,0,VALID,96.8632,VALID,0.0169808,VALID,20.546,VALID,19,VALID,0.733594,
2001-09-16, 00:15:00,VALID,918.345,VALID,0,VALID,96.8874,VALID,0.0339617,VALID,20.5495,VALID,15,VALID,0.913662,
2001-09-16, 00:16:00,VALID,918.318,VALID,0,VALID,96.8708,VALID,-0.0509425,VALID,20.5449,VALID,19,VALID,0.900288,
2001-09-16, 00:17:00,VALID,918.302,VALID,0,VALID,96.9064,VALID,-0.0679233,VALID,20.5508,VALID,16,VALID,0.962139,
2001-09-16, 00:18:00,VALID,918.261,VALID,0,VALID,96.867,VALID,-0.0509425,VALID,20.5451,VALID,17,VALID,0.632813,
2001-09-16, 00:19:00,VALID,918.233,VALID,0,VALID,96.9789,VALID,0,VALID,20.5411,VALID,12,VALID,0.326436,
2001-09-16, 00:20:00,VALID,918.225,VALID,0,VALID,97.0692,VALID,-0.0339617,VALID,20.5511,VALID,359,VALID,0.42488,
2001-09-16, 00:21:00,VALID,918.23,VALID,0,VALID,97.0183,VALID,-0.0679233,VALID,20.5578,VALID,7,VALID,0.891927,
2001-09-16, 00:22:00,VALID,918.231,VALID,0,VALID,96.9637,VALID,-0.0509425,VALID,20.5349,VALID,25,VALID,0.604384,
2001-09-16, 00:23:00,VALID,918.234,VALID,0,VALID,96.8848,VALID,0,VALID,20.5242,VALID,11,VALID,0.174219,
2001-09-16, 00:24:00,VALID,918.237,VALID,0,VALID,96.8009,VALID,-0.0679233,VALID,20.5188,VALID,14,VALID,0.694046,
2001-09-16, 00:25:00,VALID,918.251,VALID,0,VALID,96.6496,VALID,-0.0509425,VALID,20.5128,VALID,21,VALID,1.27845,
2001-09-16, 00:26:00,VALID,918.241,VALID,0,VALID,96.4766,VALID,-0.0849042,VALID,20.4544,VALID,11,VALID,0.939145,
2001-09-16, 00:27:00,VALID,918.253,VALID,0,VALID,96.5351,VALID,-0.0679233,VALID,20.4052,VALID,12,VALID,0.499809,
2001-09-16, 00:28:00,VALID,918.262,VALID,0,VALID,96.7004,VALID,-0.0679233,VALID,20.399,VALID,12,VALID,0.231971,
2001-09-16, 00:29:00,VALID,918.253,VALID,0,VALID,96.7513,VALID,-0.0849042,VALID,20.3888,VALID,18,VALID,0.34185,
2001-09-16, 00:30:00,VALID,918.244,VALID,0,VALID,96.7043,VALID,-0.0339617,VALID,20.393,VALID,20,VALID,0.742188,
2001-09-16, 00:31:00,VALID,918.22,VALID,0,VALID,96.6559,VALID,0.0339617,VALID,20.3781,VALID,17,VALID,0.867989,
2001-09-16, 00:32:00,VALID,918.212,VALID,0,VALID,96.5733,VALID,0.0679233,VALID,20.3743,VALID,17,VALID,1.2465,
2001-09-16, 00:33:00,VALID,918.191,VALID,0,VALID,96.525,VALID,0.0169808,VALID,20.3654,VALID,17,VALID,0.967694,
2001-09-16, 00:34:00,VALID,918.192,VALID,0,VALID,96.5949,VALID,0.0339617,VALID,20.3592,VALID,11,VALID,1.07873,
2001-09-16, 00:35:00,VALID,918.196,VALID,0,VALID,96.6737,VALID,0.0509425,VALID,20.346,VALID,38,VALID,0.389706,
2001-09-16, 00:36:00,VALID,918.186,VALID,0,VALID,96.7589,VALID,0.0339617,VALID,20.3624,VALID,42,VALID,0.0118189,
2001-09-16, 00:37:00,VALID,918.187,VALID,0,VALID,96.7322,VALID,0.0509425,VALID,20.3592,VALID,349,VALID,0,
2001-09-16, 00:38:00,VALID,918.168,VALID,0,VALID,96.6394,VALID,0.0509425,VALID,20.3363,VALID,326,VALID,0.000434028,
2001-09-16, 00:39:00,VALID,918.166,VALID,0,VALID,96.5364,VALID,0.0509425,VALID,20.2973,VALID,280,VALID,0.1894,
2001-09-16, 00:40:00,VALID,918.146,VALID,0,VALID,96.5072,VALID,0.0339617,VALID,20.2948,VALID,221,VALID,0.40332,
2001-09-16, 00:41:00,VALID,918.127,VALID,0,VALID,96.5746,VALID,0,VALID,20.2754,VALID,254,VALID,0.273232,
2001-09-16, 00:42:00,VALID,918.112,VALID,0,VALID,96.6356,VALID,0,VALID,20.2558,VALID,237,VALID,0.177365,
2001-09-16, 00:43:00,VALID,918.1,VALID,0,VALID,96.6814,VALID,0.0169808,VALID,20.2426,VALID,227,VALID,0.0811298,
2001-09-16, 00:44:00,VALID,918.073,VALID,0,VALID,96.7373,VALID,0.0509425,VALID,20.2297,VALID,268,VALID,0.0924831,
2001-09-16, 00:45:00,VALID,918.049,VALID,0,VALID,96.8759,VALID,0.0169808,VALID,20.23,VALID,325,VALID,0.202508,
2001-09-16, 00:46:00,VALID,918.036,VALID,0,VALID,96.9382,VALID,0.0679233,VALID,20.2596,VALID,351,VALID,0.0654561,
2001-09-16, 00:47:00,VALID,918.024,VALID,0,VALID,96.8848,VALID,0.0679233,VALID,20.2553,VALID,351,VALID,0,
2001-09-16, 00:48:00,VALID,918.018,VALID,0,VALID,96.8772,VALID,0.0339617,VALID,20.2561,VALID,351,VALID,0,
2001-09-16, 00:49:00,VALID,917.983,VALID,0,VALID,96.8645,VALID,0,VALID,20.2628,VALID,352,VALID,0,
2001-09-16, 00:50:00,VALID,917.965,VALID,0,VALID,96.8263,VALID,0.0509425,VALID,20.2531,VALID,10,VALID,0.257813,
2001-09-16, 00:51:00,VALID,917.938,VALID,0,VALID,96.8111,VALID,0.0509425,VALID,20.2327,VALID,17,VALID,0.534939,
2001-09-16, 00:52:00,VALID,917.923,VALID,0,VALID,96.7437,VALID,0.0339617,VALID,20.22,VALID,21,VALID,0.611523,
2001-09-16, 00:53:00,VALID,917.882,VALID,0,VALID,96.7627,VALID,0.0339617,VALID,20.1944,VALID,25,VALID,0.455929,
2001-09-16, 00:54:00,VALID,917.855,VALID,0,VALID,96.7767,VALID,0.0679233,VALID,20.1909,VALID,28,VALID,0.25918,
2001-09-16, 00:55:00,VALID,917.836,VALID,0,VALID,96.6979,VALID,0.0339617,VALID,20.1885,VALID,37,VALID,0.506168,
2001-09-16, 00:56:00,VALID,917.814,VALID,0,VALID,96.7373,VALID,0.0169808,VALID,20.1594,VALID,31,VALID,0.33676,
2001-09-16, 00:57:00,VALID,917.803,VALID,0,VALID,96.764,VALID,0.0339617,VALID,20.1631,VALID,27,VALID,0.325802,
2001-09-16, 00:58:00,VALID,917.774,VALID,0,VALID,96.7653,VALID,0.0339617,VALID,20.1398,VALID,28,VALID,0.348242,
2001-09-16, 00:59:00,VALID,917.768,VALID,0,VALID,96.8301,VALID,0.0339617,VALID,20.1433,VALID,28,VALID,0.277778,
2001-09-16, 01:00:00,VALID,917.763,VALID,0,VALID,96.8378,VALID,-0.0849042,VALID,20.1381,VALID,29,VALID,0.267314,
2001-09-16, 01:01:00,VALID,917.754,VALID,0,VALID,96.8174,VALID,0,VALID,20.1435,VALID,29,VALID,0.372738,
2001-09-16, 01:02:00,VALID,917.738,VALID,0,VALID,96.7233,VALID,0.0339617,VALID,20.1139,VALID,31,VALID,0.661222,
2001-09-16, 01:03:00,VALID,917.726,VALID,0,VALID,96.6458,VALID,0.0169808,VALID,20.0894,VALID,42,VALID,0.644737,
2001-09-16, 01:04:00,VALID,917.712,VALID,0,VALID,96.6598,VALID,0,VALID,20.0662,VALID,33,VALID,0.433984,
2001-09-16, 01:05:00,VALID,917.695,VALID,0,VALID,96.7208,VALID,0,VALID,20.0496,VALID,24,VALID,0.326069,
2001-09-16, 01:06:00,VALID,917.705,VALID,0,VALID,96.7004,VALID,0.0169808,VALID,20.0302,VALID,21,VALID,0.247122,
2001-09-16, 01:07:00,VALID,917.678,VALID,0,VALID,96.6826,VALID,0,VALID,20.0138,VALID,14,VALID,0.364583,
2001-09-16, 01:08:00,VALID,917.676,VALID,0,VALID,96.7526,VALID,0.0169808,VALID,19.9917,VALID,1,VALID,0.50641,
2001-09-16, 01:09:00,VALID,917.655,VALID,0,VALID,96.8378,VALID,0,VALID,19.9688,VALID,356,VALID,0.492804,
2001-09-16, 01:10:00,VALID,917.64,VALID,0,VALID,96.9471,VALID,0.0339617,VALID,19.9726,VALID,8,VALID,0.475946,
2001-09-16, 01:11:00,VALID,917.627,VALID,0,VALID,96.9395,VALID,0,VALID,19.9529,VALID,11,VALID,0.801953,
2001-09-16, 01:12:00,VALID,917.618,VALID,0,VALID,96.9331,VALID,0,VALID,19.9142,VALID,13,VALID,0.873438,
2001-09-16, 01:13:00,VALID,917.613,VALID,0,VALID,96.9179,VALID,0,VALID,19.9017,VALID,13,VALID,0.887458,
2001-09-16, 01:14:00,VALID,917.598,VALID,0,VALID,97.04,VALID,0,VALID,19.8826,VALID,12,VALID,0.652549,
2001-09-16, 01:15:00,VALID,917.588,VALID,0,VALID,97.1595,VALID,0.0169808,VALID,19.8732,VALID,12,VALID,0.567491,
2001-09-16, 01:16:00,VALID,917.577,VALID,0,VALID,97.2116,VALID,-0.0679233,VALID,19.8742,VALID,16,VALID,0.526259,
2001-09-16, 01:17:00,VALID,917.56,VALID,0,VALID,97.2269,VALID,-0.101885,VALID,19.8521,VALID,16,VALID,0.304482,
2001-09-16, 01:18:00,VALID,917.556,VALID,0,VALID,97.2078,VALID,-0.101885,VALID,19.8389,VALID,16,VALID,0.17433,
2001-09-16, 01:19:00,VALID,917.549,VALID,0,VALID,97.1887,VALID,-0.0849042,VALID,19.8329,VALID,16,VALID,0,
2001-09-16, 01:20:00,VALID,917.532,VALID,0,VALID,97.2561,VALID,-0.0849042,VALID,19.8292,VALID,16,VALID,0,
2001-09-16, 01:21:00,VALID,917.526,VALID,0,VALID,97.3439,VALID,-0.101885,VALID,19.8421,VALID,16,VALID,0,
2001-09-16, 01:22:00,VALID,917.528,VALID,0,VALID,97.3515,VALID,-0.0849042,VALID,19.8486,VALID,16,VALID,0,
2001-09-16, 01:23:00,VALID,917.517,VALID,0,VALID,97.2917,VALID,-0.118866,VALID,19.8526,VALID,16,VALID,0,
2001-09-16, 01:24:00,VALID,917.516,VALID,0,VALID,97.2676,VALID,-0.101885,VALID,19.8289,VALID,29,VALID,0.0865091,
2001-09-16, 01:25:00,VALID,917.505,VALID,0,VALID,97.3108,VALID,-0.118866,VALID,19.8359,VALID,66,VALID,0.283454,
2001-09-16, 01:26:00,VALID,917.515,VALID,0,VALID,97.396,VALID,-0.101885,VALID,19.8424,VALID,67,VALID,0.179287,
2001-09-16, 01:27:00,VALID,917.499,VALID,0,VALID,97.4036,VALID,-0.101885,VALID,19.8386,VALID,67,VALID,0.0377956,
2001-09-16, 01:28:00,VALID,917.485,VALID,0,VALID,97.3108,VALID,-0.0849042,VALID,19.8292,VALID,55,VALID,0.216016,
2001-09-16, 01:29:00,VALID,917.473,VALID,0,VALID,97.2002,VALID,-0.0849042,VALID,19.8192,VALID,46,VALID,0.316176,
2001-09-16, 01:30:00,VALID,917.436,VALID,0,VALID,97.1277,VALID,-0.0679233,VALID,19.8096,VALID,43,VALID,0.197656,
2001-09-16, 01:31:00,VALID,917.399,VALID,0,VALID,97.1302,VALID,0,VALID,19.7959,VALID,43,VALID,0.0192308,
2001-09-16, 01:32:00,VALID,917.382,VALID,0,VALID,97.2294,VALID,0,VALID,19.8145,VALID,34,VALID,0.0686678,
2001-09-16, 01:33:00,VALID,917.372,VALID,0,VALID,97.3184,VALID,0,VALID,19.8274,VALID,31,VALID,0,
2001-09-16, 01:34:00,VALID,917.357,VALID,0,VALID,97.3248,VALID,0.0169808,VALID,19.8506,VALID,26,VALID,0,
2001-09-16, 01:35:00,VALID,917.35,VALID,0,VALID,97.2256,VALID,0,VALID,19.8406,VALID,23,VALID,0,
2001-09-16, 01:36:00,VALID,917.352,VALID,0,VALID,97.101,VALID,0,VALID,19.8508,VALID,23,VALID,0,
2001-09-16, 01:37:00,VALID,917.348,VALID,0,VALID,96.9904,VALID,0,VALID,19.8473,VALID,24,VALID,0,
2001-09-16, 01:38:00,VALID,917.359,VALID,0,VALID,96.8899,VALID,0.0169808,VALID,19.8573,VALID,24,VALID,0,
2001-09-16, 01:39:00,VALID,917.359,VALID,0,VALID,96.7755,VALID,-0.0169808,VALID,19.8478,VALID,24,VALID,0,
2001-09-16, 01:40:00,VALID,917.347,VALID,0,VALID,96.703,VALID,0,VALID,19.8473,VALID,24,VALID,0,
2001-09-16, 01:41:00,VALID,917.337,VALID,0,VALID,96.6013,VALID,0,VALID,19.8478,VALID,24,VALID,0,
2001-09-16, 01:42:00,VALID,917.303,VALID,0,VALID,96.5326,VALID,-0.0169808,VALID,19.8411,VALID,24,VALID,0,
2001-09-16, 01:43:00,VALID,917.29,VALID,0,VALID,96.4232,VALID,0,VALID,19.8312,VALID,26,VALID,0.0230035,
2001-09-16, 01:44:00,VALID,917.274,VALID,0,VALID,96.3902,VALID,0,VALID,19.8242,VALID,29,VALID,0.0263672,
2001-09-16, 01:45:00,VALID,917.278,VALID,0,VALID,96.3876,VALID,0,VALID,19.8347,VALID,42,VALID,0.0249155,
2001-09-16, 01:46:00,VALID,917.274,VALID,0,VALID,96.3507,VALID,0,VALID,19.8374,VALID,78,VALID,0.420673,
2001-09-16, 01:47:00,VALID,917.296,VALID,0,VALID,96.099,VALID,0,VALID,19.8148,VALID,146,VALID,0.339433,
2001-09-16, 01:48:00,VALID,917.298,VALID,0,VALID,96.0723,VALID,-0.0169808,VALID,19.7989,VALID,143,VALID,0.503239,
2001-09-16, 01:49:00,VALID,917.296,VALID,0,VALID,96.2058,VALID,0,VALID,19.783,VALID,135,VALID,0.399239,
2001-09-16, 01:50:00,VALID,917.285,VALID,0,VALID,96.3851,VALID,-0.0169808,VALID,19.7668,VALID,119,VALID,0.333615,
2001-09-16, 01:51:00,VALID,917.282,VALID,0,VALID,96.661,VALID,0.0169808,VALID,19.7661,VALID,112,VALID,0.652734,
2001-09-16, 01:52:00,VALID,917.28,VALID,0,VALID,96.9192,VALID,0.0339617,VALID,19.7666,VALID,110,VALID,0.757813,
2001-09-16, 01:53:00,VALID,917.269,VALID,0,VALID,97.0654,VALID,0.0169808,VALID,19.7534,VALID,109,VALID,0.921669,
2001-09-16, 01:54:00,VALID,917.271,VALID,0,VALID,97.1913,VALID,0,VALID,19.737,VALID,110,VALID,0.96685,
2001-09-16, 01:55:00,VALID,917.258,VALID,0,VALID,97.3184,VALID,0.0169808,VALID,19.7375,VALID,109,VALID,0.98758,
2001-09-16, 01:56:00,VALID,917.254,VALID,0,VALID,97.3757,VALID,0.0169808,VALID,19.7278,VALID,112,VALID,0.647289,
2001-09-16, 01:57:00,VALID,917.242,VALID,0,VALID,97.4062,VALID,0,VALID,19.7017,VALID,116,VALID,0.38141,
2001-09-16, 01:58:00,VALID,917.199,VALID,0,VALID,97.4685,VALID,0.0169808,VALID,19.7087,VALID,112,VALID,0.393709,
2001-09-16, 01:59:00,VALID,917.181,VALID,0,VALID,97.457,VALID,0,VALID,19.6953,VALID,112,VALID,0.518012,
2001-09-16, 02:00:00,VALID,917.167,VALID,0,VALID,97.4748,VALID,0.0339617,VALID,19.6895,VALID,110,VALID,0.563345,
2001-09-16, 02:01:00,VALID,917.151,VALID,0,VALID,97.4532,VALID,-0.0849042,VALID,19.6774,VALID,115,VALID,0.577539,
2001-09-16, 02:02:00,VALID,917.15,VALID,0,VALID,97.4329,VALID,-0.0679233,VALID,19.6615,VALID,120,VALID,0.259252,
2001-09-16, 02:03:00,VALID,917.148,VALID,0,VALID,97.471,VALID,-0.0509425,VALID,19.6547,VALID,143,VALID,0.34375,
2001-09-16, 02:04:00,VALID,917.162,VALID,0,VALID,97.471,VALID,-0.0679233,VALID,19.6386,VALID,152,VALID,0.883413,
2001-09-16, 02:05:00,VALID,917.166,VALID,0,VALID,97.5232,VALID,-0.0849042,VALID,19.6254,VALID,162,VALID,0.838942,
2001-09-16, 02:06:00,VALID,917.16,VALID,0,VALID,97.6224,VALID,-0.0509425,VALID,19.6418,VALID,153,VALID,0.684211,
2001-09-16, 02:07:00,VALID,917.159,VALID,0,VALID,97.6986,VALID,-0.0849042,VALID,19.6483,VALID,152,VALID,0.503378,
2001-09-16, 02:08:00,VALID,917.153,VALID,0,VALID,97.8017,VALID,-0.0849042,VALID,19.6744,VALID,128,VALID,0.302484,
2001-09-16, 02:09:00,VALID,917.154,VALID,0,VALID,97.8627,VALID,-0.0509425,VALID,19.6873,VALID,146,VALID,0.676943,
2001-09-16, 02:10:00,VALID,917.149,VALID,0,VALID,97.883,VALID,-0.101885,VALID,19.6908,VALID,144,VALID,0.53125,
2001-09-16, 02:11:00,VALID,917.161,VALID,0,VALID,97.9097,VALID,-0.0679233,VALID,19.6801,VALID,141,VALID,0.88205,
2001-09-16, 02:12:00,VALID,917.16,VALID,0,VALID,97.9186,VALID,-0.0509425,VALID,19.6779,VALID,151,VALID,0.659722,
2001-09-16, 02:13:00,VALID,917.156,VALID,0,VALID,97.9517,VALID,-0.0679233,VALID,19.6709,VALID,155,VALID,0.58418,
2001-09-16, 02:14:00,VALID,917.152,VALID,0,VALID,98.0089,VALID,-0.0679233,VALID,19.6711,VALID,139,VALID,0.605569,
2001-09-16, 02:15:00,VALID,917.124,VALID,0,VALID,98.0522,VALID,-0.0849042,VALID,19.6843,VALID,120,VALID,0.611328,
2001-09-16, 02:16:00,VALID,917.111,VALID,0,VALID,98.0572,VALID,0,VALID,19.6893,VALID,132,VALID,0.458059,
2001-09-16, 02:17:00,VALID,917.074,VALID,0,VALID,98.075,VALID,0.0169808,VALID,19.6925,VALID,145,VALID,0.790502,
2001-09-16, 02:18:00,VALID,917.04,VALID,0,VALID,98.0928,VALID,0.0339617,VALID,19.6957,VALID,150,VALID,0.271326,
2001-09-16, 02:19:00,VALID,917.02,VALID,0,VALID,98.0776,VALID,0.0679233,VALID,19.7052,VALID,147,VALID,0.426172,
2001-09-16, 02:20:00,VALID,917,VALID,0,VALID,98.0267,VALID,0.0169808,VALID,19.6759,VALID,128,VALID,0.419705,
2001-09-16, 02:21:00,VALID,916.997,VALID,0,VALID,97.9657,VALID,0,VALID,19.6632,VALID,136,VALID,0.824324,
2001-09-16, 02:22:00,VALID,916.998,VALID,0,VALID,97.8996,VALID,0.0509425,VALID,19.6533,VALID,127,VALID,0.721834,
2001-09-16, 02:23:00,VALID,917.002,VALID,0,VALID,97.8525,VALID,0.0169808,VALID,19.6403,VALID,112,VALID,0.592566,
2001-09-16, 02:24:00,VALID,916.99,VALID,0,VALID,97.8144,VALID,0.0169808,VALID,19.6572,VALID,127,VALID,0.167352,
2001-09-16, 02:25:00,VALID,916.995,VALID,0,VALID,97.761,VALID,0.0169808,VALID,19.6503,VALID,120,VALID,0.518945,
2001-09-16, 02:26:00,VALID,916.982,VALID,0,VALID,97.7025,VALID,0,VALID,19.6538,VALID,109,VALID,0.55366,
2001-09-16, 02:27:00,VALID,916.97,VALID,0,VALID,97.658,VALID,0.0509425,VALID,19.6468,VALID,112,VALID,0.344778,
2001-09-16, 02:28:00,VALID,916.954,VALID,0,VALID,97.6007,VALID,0.0509425,VALID,19.6408,VALID,140,VALID,0.409655,
2001-09-16, 02:29:00,VALID,916.94,VALID,0,VALID,97.5842,VALID,0.0339617,VALID,19.6403,VALID,142,VALID,0.122196,
2001-09-16, 02:30:00,VALID,916.923,VALID,0,VALID,97.5753,VALID,0.0169808,VALID,19.6572,VALID,141,VALID,0.10403,
2001-09-16, 02:31:00,VALID,916.919,VALID,0,VALID,97.5689,VALID,0,VALID,19.6634,VALID,141,VALID,0.100535,
2001-09-16, 02:32:00,VALID,916.92,VALID,0,VALID,97.5702,VALID,0.0679233,VALID,19.6692,VALID,149,VALID,0.206641,
2001-09-16, 02:33:00,VALID,916.915,VALID,0,VALID,97.5702,VALID,0.0339617,VALID,19.6828,VALID,183,VALID,0.273884,
2001-09-16, 02:34:00,VALID,916.936,VALID,0,VALID,97.6046,VALID,0.0339617,VALID,19.7025,VALID,181,VALID,0.0931166,
2001-09-16, 02:35:00,VALID,916.948,VALID,0,VALID,97.63,VALID,0.0169808,VALID,19.7119,VALID,183,VALID,0.00205592,
2001-09-16, 02:36:00,VALID,916.952,VALID,0,VALID,97.6363,VALID,0.0169808,VALID,19.7276,VALID,167,VALID,0.227865,
2001-09-16, 02:37:00,VALID,916.973,VALID,0,VALID,97.56,VALID,0.0339617,VALID,19.731,VALID,143,VALID,0.48546,
2001-09-16, 02:38:00,VALID,916.978,VALID,0,VALID,97.4723,VALID,0,VALID,19.7278,VALID,162,VALID,0.389391,
2001-09-16, 02:39:00,VALID,916.983,VALID,0,VALID,97.4863,VALID,0.0509425,VALID,19.7377,VALID,184,VALID,0.34442,
2001-09-16, 02:40:00,VALID,916.986,VALID,0,VALID,97.5206,VALID,0.0509425,VALID,19.7372,VALID,168,VALID,0.23117,
2001-09-16, 02:41:00,VALID,916.982,VALID,0,VALID,97.5511,VALID,0,VALID,19.7569,VALID,142,VALID,0.497179,
2001-09-16, 02:42:00,VALID,916.972,VALID,0,VALID,97.4685,VALID,0,VALID,19.7636,VALID,159,VALID,1.3598,
2001-09-16, 02:43:00,VALID,916.972,VALID,0,VALID,97.4329,VALID,0.0169808,VALID,19.744,VALID,150,VALID,1.54564,
2001-09-16, 02:44:00,VALID,916.969,VALID,0,VALID,97.4876,VALID,0.0509425,VALID,19.7372,VALID,170,VALID,1.23725,
2001-09-16, 02:45:00,VALID,916.965,VALID,0,VALID,97.5397,VALID,0.0169808,VALID,19.7541,VALID,138,VALID,0.644626,
2001-09-16, 02:46:00,VALID,916.973,VALID,0,VALID,97.541,VALID,0.0169808,VALID,19.7402,VALID,148,VALID,0.741587,
2001-09-16, 02:47:00,VALID,916.975,VALID,0,VALID,97.4952,VALID,0,VALID,19.7472,VALID,116,VALID,0.657051,
2001-09-16, 02:48:00,VALID,916.997,VALID,0,VALID,97.5321,VALID,0.0339617,VALID,19.7604,VALID,144,VALID,0.821579,
2001-09-16, 02:49:00,VALID,916.994,VALID,0,VALID,97.5321,VALID,0.0509425,VALID,19.7599,VALID,132,VALID,0.561328,
2001-09-16, 02:50:00,VALID,916.994,VALID,0,VALID,97.5232,VALID,0.0339617,VALID,19.7467,VALID,91,VALID,0.251379,
2001-09-16, 02:51:00,VALID,916.975,VALID,0,VALID,97.4303,VALID,0.0169808,VALID,19.7469,VALID,110,VALID,0.722266,
2001-09-16, 02:52:00,VALID,916.952,VALID,0,VALID,97.3312,VALID,0.0679233,VALID,19.7305,VALID,124,VALID,1.10817,
2001-09-16, 02:53:00,VALID,916.925,VALID,0,VALID,97.2587,VALID,0.0509425,VALID,19.7179,VALID,123,VALID,0.804071,
2001-09-16, 02:54:00,VALID,916.893,VALID,0,VALID,97.2027,VALID,0.0509425,VALID,19.7015,VALID,120,VALID,0.819285,
2001-09-16, 02:55:00,VALID,916.865,VALID,0,VALID,97.129,VALID,0.0679233,VALID,19.6885,VALID,112,VALID,1.53437,
2001-09-16, 02:56:00,VALID,916.833,VALID,0,VALID,97.1112,VALID,0.0339617,VALID,19.6657,VALID,135,VALID,0.86875,
2001-09-16, 02:57:00,VALID,916.797,VALID,0,VALID,97.1099,VALID,0.0339617,VALID,19.6731,VALID,155,VALID,0.40004,
2001-09-16, 02:58:00,VALID,916.788,VALID,0,VALID,97.0845,VALID,0.0339617,VALID,19.663,VALID,167,VALID,0.524877,
2001-09-16, 02:59:00,VALID,916.781,VALID,0,VALID,97.0539,VALID,0.0169808,VALID,19.6567,VALID,132,VALID,0.439904,
2001-09-16, 03:00:00,VALID,916.753,VALID,0,VALID,97.0323,VALID,0.0169808,VALID,19.6401,VALID,138,VALID,0.609575,
2001-09-16, 03:01:00,VALID,916.745,VALID,0,VALID,97.0425,VALID,-0.0169808,VALID,19.6244,VALID,143,VALID,0.461993,
2001-09-16, 03:02:00,VALID,916.716,VALID,0,VALID,97.0285,VALID,-0.0169808,VALID,19.6182,VALID,142,VALID,0.460337,
2001-09-16, 03:03:00,VALID,916.7,VALID,0,VALID,96.9993,VALID,-0.0339617,VALID,19.6021,VALID,145,VALID,0.354167,
2001-09-16, 03:04:00,VALID,916.672,VALID,0,VALID,97.0031,VALID,-0.0339617,VALID,19.5896,VALID,139,VALID,0.345486,
2001-09-16, 03:05:00,VALID,916.638,VALID,0,VALID,97.0578,VALID,0,VALID,19.5663,VALID,113,VALID,0.0576172,
2001-09-16, 03:06:00,VALID,916.633,VALID,0,VALID,97.1188,VALID,0,VALID,19.5534,VALID,109,VALID,0.51098,
2001-09-16, 03:07:00,VALID,916.605,VALID,0,VALID,97.1264,VALID,-0.0169808,VALID,19.5375,VALID,127,VALID,0.424079,
2001-09-16, 03:08:00,VALID,916.585,VALID,0,VALID,97.1735,VALID,-0.0339617,VALID,19.5248,VALID,115,VALID,0.637952,
2001-09-16, 03:09:00,VALID,916.559,VALID,0,VALID,97.2714,VALID,0,VALID,19.5119,VALID,118,VALID,0.478468,
2001-09-16, 03:10:00,VALID,916.534,VALID,0,VALID,97.2421,VALID,0,VALID,19.4962,VALID,107,VALID,0.369992,
2001-09-16, 03:11:00,VALID,916.512,VALID,0,VALID,97.2421,VALID,-0.0509425,VALID,19.4639,VALID,96,VALID,0.38239,
2001-09-16, 03:12:00,VALID,916.511,VALID,0,VALID,97.3184,VALID,-0.0679233,VALID,19.4478,VALID,80,VALID,0.501367,
2001-09-16, 03:13:00,VALID,916.494,VALID,0,VALID,97.2104,VALID,-0.0169808,VALID,19.4048,VALID,73,VALID,0.395433,
2001-09-16, 03:14:00,VALID,916.477,VALID,0,VALID,97.1493,VALID,-0.0339617,VALID,19.3735,VALID,75,VALID,0.495888,
2001-09-16, 03:15:00,VALID,916.46,VALID,0,VALID,97.1302,VALID,-0.0169808,VALID,19.3275,VALID,62,VALID,0.621622,
2001-09-16, 03:16:00,VALID,916.447,VALID,0,VALID,97.1531,VALID,-0.0339617,VALID,19.2987,VALID,77,VALID,0.760817,
2001-09-16, 03:17:00,VALID,916.425,VALID,0,VALID,97.1366,VALID,-0.0679233,VALID,19.2664,VALID,68,VALID,0.376608,
2001-09-16, 03:18:00,VALID,916.406,VALID,0,VALID,97.2332,VALID,-0.0169808,VALID,19.2438,VALID,62,VALID,0.326723,
2001-09-16, 03:19:00,VALID,916.399,VALID,0,VALID,97.4214,VALID,-0.0339617,VALID,19.2373,VALID,69,VALID,0.604235,
2001-09-16, 03:20:00,VALID,916.37,VALID,0,VALID,97.6452,VALID,-0.0339617,VALID,19.2507,VALID,83,VALID,0.834418,
2001-09-16, 03:21:00,VALID,916.35,VALID,0,VALID,97.7114,VALID,-0.0169808,VALID,19.2537,VALID,56,VALID,0.3106,
2001-09-16, 03:22:00,VALID,916.341,VALID,0,VALID,97.6898,VALID,-0.0339617,VALID,19.2373,VALID,60,VALID,0.220508,
2001-09-16, 03:23:00,VALID,916.315,VALID,0,VALID,97.7749,VALID,0,VALID,19.2177,VALID,79,VALID,0.197574,
2001-09-16, 03:24:00,VALID,916.314,VALID,0,VALID,97.8818,VALID,0,VALID,19.2408,VALID,21,VALID,0.254434,
2001-09-16, 03:25:00,VALID,916.289,VALID,0,VALID,97.8284,VALID,0.0169808,VALID,19.2279,VALID,32,VALID,0.48778,
2001-09-16, 03:26:00,VALID,916.277,VALID,0,VALID,97.7978,VALID,0,VALID,19.205,VALID,33,VALID,0.265425,
2001-09-16, 03:27:00,VALID,916.277,VALID,0,VALID,97.7673,VALID,-0.0169808,VALID,19.1824,VALID,33,VALID,0.330181,
2001-09-16, 03:28:00,VALID,916.291,VALID,0,VALID,97.6948,VALID,-0.0169808,VALID,19.1601,VALID,28,VALID,0.383235,
2001-09-16, 03:29:00,VALID,916.29,VALID,0,VALID,97.6898,VALID,0,VALID,19.1275,VALID,12,VALID,0.394231,
2001-09-16, 03:30:00,VALID,916.32,VALID,0,VALID,97.7037,VALID,-0.0169808,VALID,19.1086,VALID,12,VALID,0.324958,
2001-09-16, 03:31:00,VALID,916.326,VALID,0,VALID,97.677,VALID,-0.0169808,VALID,19.0761,VALID,20,VALID,0.486275,
2001-09-16, 03:32:00,VALID,916.336,VALID,0,VALID,97.7978,VALID,0,VALID,19.0763,VALID,33,VALID,0.122332,
2001-09-16, 03:33:00,VALID,916.351,VALID,0,VALID,97.864,VALID,-0.0169808,VALID,19.08,VALID,33,VALID,0,
2001-09-16, 03:34:00,VALID,916.346,VALID,0,VALID,97.8983,VALID,-0.0169808,VALID,19.0639,VALID,33,VALID,0,